Ben Gurion International Airport, Israel

9:28 AM IDT on September 26, 2017 (GMT +0300)
Ben Gurion International Airport

Weather History for 40180 - October, 2013

Change the Weather History Date:

Monday, October 21, 2013

  Actual Average Record
Temperature  
Mean Temperature 76 °F -  
Max Temperature 88 °F 76 °F - ()
Min Temperature 63 °F 58 °F - ()
Cooling Degree Days 10    
Growing Degree Days 26 (Base 50)    
Moisture  
Dew Point 39 °F    
Average Humidity 29    
Maximum Humidity 59    
Minimum Humidity 8    
Precipitation  
Precipitation 0.00 in - - ()
Sea Level Pressure  
Sea Level Pressure 30.03 in    
Wind  
Wind Speed 8 mph ()    
Max Wind Speed 23 mph    
Max Gust Speed -    
Visibility 5.6 miles    
Events      
T = Trace of Precipitation, MM = Missing Value Source: Averaged Metar Reports

Daily Weather History Graph

Daily Weather History Graph

Search for Another Location

Airport or City:

Trip Planner

Search our weather history database for the weather conditions in past years. The results will help you decide how hot, cold, wet, or windy it might be!

Date:

Astronomy

Oct. 21, 2013 Rise Set
Actual Time 6:48 AM IDT 6:01 PM IDT
Civil Twilight 6:23 AM IDT 6:26 PM IDT
Nautical Twilight 5:54 AM IDT 6:54 PM IDT
Astronomical Twilight 5:26 AM IDT 7:22 PM IDT
Moon 7:46 PM IDT (10/21) 8:56 AM IDT (10/21)
Length of Visible Light 12h 02m
Length of Day
11h 13m
Waning Gibbous, 94% of the Moon is Illuminated
Oct 21
Waning Gibbous
Oct 27
Last Quarter
Nov 3
New
Nov 10
First Quarter
Nov 17
Full

Hourly Weather History & Observations

Time (IDT) Temp. Dew Point Humidity Pressure Visibility Wind Dir Wind Speed Gust Speed Precip Events Conditions
12:20 AM 64.4 °F 50.0 °F 59% 30.12 in - East 4.6 mph - N/A   Clear
12:50 AM 64.4 °F 50.0 °F 59% 30.09 in - NNE 4.6 mph - N/A   Clear
1:20 AM 64.4 °F 48.2 °F 56% 30.09 in - North 6.9 mph - N/A   Clear
1:50 AM 66.2 °F 50.0 °F 56% 30.09 in - NNE 4.6 mph - N/A   Clear
2:20 AM 64.4 °F 50.0 °F 59% 30.09 in - NNE 10.4 mph - N/A   Clear
2:50 AM 64.4 °F 48.2 °F 56% 30.06 in - NNE 9.2 mph - N/A   Clear
3:00 AM 64 °F 48 °F 45% 30.09 in 6 mi NNE 9.2 mph - -  
3:20 AM 64.4 °F 46.4 °F 52% 30.06 in - NNE 6.9 mph - N/A   Clear
3:50 AM 64.4 °F 44.6 °F 49% 30.06 in - Variable 3.5 mph - N/A   Clear
4:20 AM 64.4 °F 42.8 °F 45% 30.06 in - NNE 5.8 mph - N/A   Clear
4:50 AM 64.4 °F 42.8 °F 45% 30.06 in - Variable 1.2 mph - N/A   Clear
5:20 AM 64.4 °F 39.2 °F 40% 30.06 in - NNE 4.6 mph - N/A   Clear
5:50 AM 68.0 °F 41.0 °F 37% 30.06 in - NNE 5.8 mph - N/A   Clear
6:20 AM 68.0 °F 35.6 °F 30% 30.06 in - Variable 2.3 mph - N/A   Clear
6:50 AM 68.0 °F 35.6 °F 30% 30.06 in - East 4.6 mph - N/A   Clear
7:20 AM 69.8 °F 35.6 °F 28% 30.06 in - East 5.8 mph - N/A   Clear
7:50 AM 71.6 °F 35.6 °F 27% 30.06 in - Variable 3.5 mph - N/A   Clear
8:20 AM 75.2 °F 33.8 °F 22% 30.06 in - East 12.7 mph - N/A   Clear
8:50 AM 77.0 °F 33.8 °F 21% 30.06 in - East 16.1 mph - N/A   Clear
9:00 AM 76 °F 32 °F 11% 30.08 in 6 mi East 17.3 mph - -  
9:20 AM 78.8 °F 33.8 °F 20% 30.06 in - East 18.4 mph - N/A   Clear
9:50 AM 78.8 °F 33.8 °F 20% 30.06 in - East 17.3 mph - N/A   Clear
10:20 AM 80.6 °F 33.8 °F 18% 30.06 in - ESE 23.0 mph - N/A   Clear
10:50 AM 80.6 °F 33.8 °F 18% 30.06 in - ESE 23.0 mph - N/A   Clear
11:20 AM 82.4 °F 33.8 °F 17% 30.06 in - ESE 20.7 mph - N/A   Clear
11:50 AM 82.4 °F 33.8 °F 17% 30.06 in - ESE 20.7 mph - N/A   Clear
12:20 PM 82.4 °F 33.8 °F 17% 30.04 in - East 21.9 mph - N/A   Clear
12:50 PM 84.2 °F 33.8 °F 16% 30.04 in - East 20.7 mph - N/A   Clear
1:20 PM 86.0 °F 35.6 °F 17% 30.01 in 5.6 mi East 17.3 mph - N/A   Clear
1:50 PM 86.0 °F 35.6 °F 17% 30.01 in 5.6 mi ESE 12.7 mph - N/A   Clear
2:20 PM 86.0 °F 35.6 °F 17% 29.98 in 5.6 mi ESE 13.8 mph - N/A   Clear
2:50 PM 87.8 °F 35.6 °F 16% 29.98 in 5.6 mi ESE 12.7 mph - N/A   Clear
3:00 PM 87 °F 35 °F 8% 29.99 in 6 mi SE 8.1 mph - -   Haze
3:20 PM 87.8 °F 35.6 °F 16% 29.98 in 4.3 mi SE 6.9 mph - N/A   Clear
3:50 PM 86.0 °F 35.6 °F 17% 29.98 in 5.0 mi East 13.8 mph - N/A   Clear
4:20 PM 87.8 °F 33.8 °F 15% 29.98 in 5.6 mi East 5.8 mph - N/A   Clear
4:50 PM 87.8 °F 35.6 °F 16% 29.98 in - ENE 8.1 mph - N/A   Clear
5:20 PM 86.0 °F 35.6 °F 17% 29.98 in - East 10.4 mph - N/A   Clear
5:50 PM 84.2 °F 37.4 °F 19% 29.98 in - NE 10.4 mph - N/A   Clear
6:20 PM 80.6 °F 35.6 °F 20% 29.98 in - NNE 8.1 mph - N/A   Clear
6:50 PM 80.6 °F 35.6 °F 20% 29.98 in - NNE 8.1 mph - N/A   Clear
7:20 PM 78.8 °F 35.6 °F 21% 29.98 in - North 8.1 mph - N/A   Clear
7:50 PM 78.8 °F 35.6 °F 21% 30.01 in - North 9.2 mph - N/A   Clear
8:20 PM 75.2 °F 41.0 °F 29% 30.01 in - NNW 9.2 mph - N/A   Clear
8:50 PM 75.2 °F 44.6 °F 34% 30.01 in - North 10.4 mph - N/A   Clear
9:00 PM 75 °F 44 °F 22% 30.01 in 6 mi North 10.4 mph - -  
9:20 PM 73.4 °F 44.6 °F 36% 30.01 in - North 9.2 mph - N/A   Clear
9:50 PM 73.4 °F 42.8 °F 33% 30.01 in - North 9.2 mph - N/A   Clear
10:20 PM 73.4 °F 41.0 °F 31% 30.01 in - North 9.2 mph - N/A   Clear
10:50 PM 73.4 °F 39.2 °F 29% 30.01 in - North 10.4 mph - N/A   Clear
11:20 PM 73.4 °F 39.2 °F 29% 29.98 in - North 8.1 mph - N/A   Clear
11:50 PM 71.6 °F 39.2 °F 31% 29.98 in - Variable 1.2 mph - N/A   Clear